Location: Unspecified
(0.0000°N, 0.0000°E)
Time: 15:26:51
(UTC+00:00)

Explorer 11/Cluster Stage 4 - All Passes

Search period start: 12 April 2021 00:00
Search period end: 22 April 2021 00:00
Orbit: 467 x 1257 km, 28.8° (Epoch: 11 April)

Date Brightness Start Highest point End Pass type
(mag) Time Alt. Az. Time Alt. Az. Time Alt. Az.
12 Apr - 04:26:30 10° S 04:28:19 13° SSE 04:30:13 10° ESE visible
12 Apr - 06:12:25 10° WSW 06:16:25 83° NNW 06:21:17 10° ENE daylight
12 Apr - 08:02:01 10° WNW 08:05:17 18° NNW 08:09:00 10° NNE daylight
12 Apr - 15:23:05 10° NNW 15:29:04 22° NNE 15:34:53 10° ENE daylight
12 Apr - 17:10:53 10° NW 17:18:58 61° NNE 17:26:07 10° ESE daylight
12 Apr - 19:00:59 10° W 19:08:11 42° SSW 19:14:16 10° SE visible
12 Apr - 20:56:20 10° SW 20:57:14 10° SSW 20:58:07 10° SSW visible
13 Apr - 04:15:04 10° S 04:17:27 16° SSE 04:19:57 10° ESE visible
13 Apr - 06:01:42 10° WSW 06:05:33 62° NNW 06:10:08 10° NE daylight
13 Apr - 07:52:05 10° NW 07:54:29 14° NNW 07:57:06 10° N daylight
13 Apr - 15:11:35 10° NNW 15:18:00 25° NNE 15:24:20 10° ENE daylight
13 Apr - 16:59:34 10° NW 17:07:48 71° NNE 17:15:13 10° ESE daylight
13 Apr - 18:49:58 10° W 18:57:03 37° SSW 19:03:10 10° SSE visible
14 Apr - 04:03:48 10° SSW 04:06:35 20° SSE 04:09:30 10° E visible
14 Apr - 05:51:03 10° WSW 05:54:42 45° NNW 05:58:57 10° NE daylight
14 Apr - 07:43:10 10° NNW 07:43:42 10° NNW 07:44:14 10° NNW daylight
14 Apr - 15:00:08 10° NNW 15:06:54 29° NNE 15:13:41 10° E daylight
14 Apr - 16:48:18 10° WNW 16:56:36 82° NNE 17:04:15 10° ESE daylight
14 Apr - 18:39:01 10° W 18:45:55 32° SSW 18:52:00 10° SSE visible
15 Apr - 03:52:38 10° SSW 03:55:44 26° SSE 03:58:56 10° E visible
15 Apr - 05:40:28 10° W 05:43:52 33° NNW 05:47:43 10° NE daylight
15 Apr - 13:03:47 10° N 13:05:38 11° NNE 13:07:32 10° NE daylight
15 Apr - 14:48:45 10° NNW 14:55:46 33° NNE 15:02:56 10° E daylight
15 Apr - 16:37:05 10° WNW 16:45:23 86° SSW 16:53:12 10° ESE daylight
15 Apr - 18:28:09 10° W 18:34:48 28° SSW 18:40:48 10° SSE visible
16 Apr - 03:41:32 10° SW 03:44:53 35° SSE 03:48:17 10° E visible
16 Apr - 05:29:58 10° W 05:33:04 25° NNW 05:36:25 10° NNE visible
16 Apr - 12:51:52 10° N 12:54:42 12° NNE 12:57:38 10° NE daylight
16 Apr - 14:37:25 10° NW 14:44:37 38° NNE 14:52:06 10° E daylight
16 Apr - 16:25:56 10° WNW 16:34:11 76° SSW 16:42:06 10° SE daylight
16 Apr - 18:17:21 10° W 18:23:42 25° SSW 18:29:32 10° SSE visible
17 Apr - 03:30:29 10° SW 03:34:04 48° SSE 03:37:35 10° ENE visible
17 Apr - 05:19:37 10° WNW 05:22:15 18° NNW 05:25:02 10° NNE visible
17 Apr - 12:40:14 10° N 12:43:44 14° NNE 12:47:25 10° NE daylight
17 Apr - 14:26:10 10° NW 14:33:27 43° NNE 14:41:11 10° E daylight
17 Apr - 16:14:51 10° WNW 16:22:58 66° SSW 16:30:56 10° SE daylight
17 Apr - 18:06:38 10° WSW 18:12:36 22° SSW 18:18:13 10° SSE daylight
18 Apr - 01:33:55 10° SSE 01:34:43 10° SSE 01:35:29 10° SE night (unlit)
18 Apr - 03:19:29 10° SW 03:23:14 69° SSE 03:26:49 10° ENE visible
18 Apr - 05:09:27 10° WNW 05:11:26 14° NNW 05:13:28 10° N visible
18 Apr - 12:28:45 10° N 12:32:44 16° NNE 12:37:01 10° ENE daylight
18 Apr - 14:14:57 10° NW 14:22:15 50° NNE 14:30:11 10° ESE daylight
18 Apr - 16:03:51 10° WNW 16:11:45 57° SSW 16:19:43 10° SE daylight
18 Apr - 17:56:01 10° WSW 18:01:33 19° SSW 18:06:49 10° SSE daylight
19 Apr - 01:21:35 10° S 01:23:55 14° SSE 01:26:06 10° ESE night (unlit)
19 Apr - 03:08:31 10° WSW 03:12:23 85° NNW 03:15:59 10° ENE visible
19 Apr - 04:59:54 10° NW 05:00:37 10° NNW 05:01:20 10° NNW visible
19 Apr - 12:17:22 10° N 12:21:42 17° NNE 12:26:28 10° ENE daylight
19 Apr - 14:03:48 10° NW 14:11:03 58° NNE 14:19:08 10° ESE daylight
19 Apr - 15:52:54 10° WNW 16:00:33 49° SSW 16:08:26 10° SE daylight
19 Apr - 17:45:31 10° WSW 17:50:30 17° SSW 17:55:21 10° SSE daylight
20 Apr - 01:09:53 10° SSW 01:13:08 19° SSE 01:16:01 10° ESE night (unlit)
20 Apr - 02:57:35 10° WSW 03:01:32 61° NNW 03:05:07 10° NE night (unlit)
20 Apr - 12:06:04 10° NNW 12:10:40 20° NNE 12:15:50 10° ENE daylight
20 Apr - 13:52:43 10° NW 13:59:52 67° NNE 14:08:01 10° ESE daylight
20 Apr - 15:42:02 10° W 15:49:23 42° SSW 15:57:05 10° SE daylight
20 Apr - 17:35:08 10° SW 17:39:30 15° SSW 17:43:48 10° S daylight
21 Apr - 00:58:22 10° SSW 01:02:19 25° SSE 01:05:43 10° E night (unlit)
21 Apr - 02:46:43 10° WSW 02:50:41 45° NNW 02:54:11 10° NE night (unlit)
21 Apr - 11:54:49 10° NNW 11:59:37 22° NNE 12:05:06 10° E daylight
21 Apr - 13:41:40 10° NW 13:48:41 78° NNE 13:56:50 10° ESE daylight
21 Apr - 15:31:15 10° W 15:38:15 36° SSW 15:45:42 10° SE daylight
21 Apr - 17:24:56 10° SW 17:28:32 13° SSW 17:32:07 10° S daylight
